Year,Month,Day,Hour,Minute,Value (Times are PST for temperature in C)
2020,03,27,11,26,6.10
2020,03,27,11,27,6.10
2020,03,27,11,28,6.10
2020,03,27,11,29,6.10
2020,03,27,11,30,6.10
2020,03,27,11,31,6.10
2020,03,27,11,32,6.10
2020,03,27,11,33,6.10
2020,03,27,11,34,6.20
2020,03,27,11,35,6.20
2020,03,27,11,36,6.20
2020,03,27,11,37,6.20
2020,03,27,11,38,6.20
2020,03,27,11,39,6.20
2020,03,27,11,40,6.20
2020,03,27,11,41,6.20
2020,03,27,11,42,6.20
2020,03,27,11,43,6.20
2020,03,27,11,44,6.20
2020,03,27,11,45,6.30
2020,03,27,11,46,6.30
2020,03,27,11,47,6.30
2020,03,27,11,48,6.30
2020,03,27,11,49,6.30
2020,03,27,11,50,6.30
2020,03,27,11,51,6.30
2020,03,27,11,52,6.20
2020,03,27,11,53,6.20
2020,03,27,11,54,6.20
2020,03,27,11,55,6.20
2020,03,27,11,56,6.20
2020,03,27,11,57,6.20
2020,03,27,11,58,6.20
2020,03,27,11,59,6.20
2020,03,27,12,00,6.20
2020,03,27,12,01,6.20
2020,03,27,12,02,6.20
2020,03,27,12,03,6.30
2020,03,27,12,04,6.30
2020,03,27,12,05,6.30
2020,03,27,12,06,6.40
2020,03,27,12,07,6.40
2020,03,27,12,08,6.40
2020,03,27,12,09,6.40
2020,03,27,12,10,6.40
2020,03,27,12,11,6.30
2020,03,27,12,12,6.30
2020,03,27,12,13,6.30
2020,03,27,12,14,6.30
2020,03,27,12,15,6.30
2020,03,27,12,16,6.30
2020,03,27,12,17,6.30
2020,03,27,12,18,6.30
2020,03,27,12,19,6.30
2020,03,27,12,20,6.30
2020,03,27,12,21,6.30
2020,03,27,12,22,6.30
2020,03,27,12,23,6.30
2020,03,27,12,24,6.20
2020,03,27,12,25,6.20
2020,03,27,12,26,6.20
2020,03,27,12,27,6.20
2020,03,27,12,28,6.20
2020,03,27,12,29,6.30
2020,03,27,12,30,6.30
2020,03,27,12,31,6.30
2020,03,27,12,32,6.30
2020,03,27,12,33,6.30
2020,03,27,12,34,6.40
2020,03,27,12,35,6.40
2020,03,27,12,36,6.40
2020,03,27,12,37,6.40
2020,03,27,12,38,6.40
2020,03,27,12,39,6.40
2020,03,27,12,40,6.30
2020,03,27,12,41,6.40
2020,03,27,12,42,6.40
2020,03,27,12,43,6.40
2020,03,27,12,44,6.40
2020,03,27,12,45,6.50
2020,03,27,12,46,6.50
2020,03,27,12,47,6.50
2020,03,27,12,48,6.50
2020,03,27,12,49,6.40
2020,03,27,12,50,6.40
2020,03,27,12,51,6.40
2020,03,27,12,52,6.40
2020,03,27,12,53,6.50
2020,03,27,12,54,6.50
2020,03,27,12,55,6.50
2020,03,27,12,56,6.50
2020,03,27,12,57,6.50
2020,03,27,12,58,6.50
2020,03,27,12,59,6.50
2020,03,27,13,00,6.40
2020,03,27,13,01,6.40
2020,03,27,13,02,6.50
2020,03,27,13,03,6.50
2020,03,27,13,04,6.50
2020,03,27,13,05,6.50
2020,03,27,13,06,6.60
2020,03,27,13,07,6.60
2020,03,27,13,08,6.60
2020,03,27,13,09,6.60
2020,03,27,13,10,6.60
2020,03,27,13,11,6.60
2020,03,27,13,12,6.60
2020,03,27,13,13,6.50
2020,03,27,13,14,6.50
2020,03,27,13,15,6.50
2020,03,27,13,16,6.50
2020,03,27,13,17,6.50
2020,03,27,13,18,6.50
2020,03,27,13,19,6.50
2020,03,27,13,20,6.50
2020,03,27,13,21,6.60
2020,03,27,13,22,6.60
2020,03,27,13,23,6.70
2020,03,27,13,24,6.70
2020,03,27,13,25,6.70
2020,03,27,13,26,6.70
2020,03,27,13,27,6.70
2020,03,27,13,28,6.70
2020,03,27,13,29,6.70
2020,03,27,13,30,6.80
2020,03,27,13,31,6.80
2020,03,27,13,32,6.80
2020,03,27,13,33,6.80
2020,03,27,13,34,6.70
2020,03,27,13,35,6.70
2020,03,27,13,36,6.70
2020,03,27,13,37,6.70
2020,03,27,13,38,6.70
2020,03,27,13,39,6.70
2020,03,27,13,40,6.70
2020,03,27,13,41,6.70
2020,03,27,13,42,6.80
2020,03,27,13,43,6.80
2020,03,27,13,44,6.80
2020,03,27,13,45,6.70
2020,03,27,13,46,6.70
2020,03,27,13,47,6.70
2020,03,27,13,48,6.70
2020,03,27,13,49,6.70
2020,03,27,13,50,6.70
2020,03,27,13,51,6.80
2020,03,27,13,52,6.80
2020,03,27,13,53,6.80
2020,03,27,13,54,6.80
2020,03,27,13,55,6.70
2020,03,27,13,56,6.70
2020,03,27,13,57,6.70
2020,03,27,13,58,6.70
2020,03,27,13,59,6.70
2020,03,27,14,00,6.70
2020,03,27,14,01,6.80
2020,03,27,14,02,6.80
2020,03,27,14,03,6.80
2020,03,27,14,04,6.90
2020,03,27,14,05,6.80
2020,03,27,14,06,6.80
2020,03,27,14,07,6.80
2020,03,27,14,08,6.80
2020,03,27,14,09,6.80
2020,03,27,14,10,6.80
2020,03,27,14,11,6.70
2020,03,27,14,12,6.70
2020,03,27,14,13,6.70
2020,03,27,14,14,6.70
2020,03,27,14,15,6.60
2020,03,27,14,16,6.60
2020,03,27,14,17,6.50
2020,03,27,14,18,6.50
2020,03,27,14,19,6.50
2020,03,27,14,20,6.40
2020,03,27,14,21,6.40
2020,03,27,14,22,6.40
2020,03,27,14,23,6.40
2020,03,27,14,24,6.50
2020,03,27,14,25,6.50
2020,03,27,14,26,6.60
2020,03,27,14,27,6.60
2020,03,27,14,28,6.70
2020,03,27,14,29,6.70
2020,03,27,14,30,6.60
2020,03,27,14,31,6.60
2020,03,27,14,32,6.60
2020,03,27,14,33,6.60
2020,03,27,14,34,6.60
2020,03,27,14,35,6.60
2020,03,27,14,36,6.60
2020,03,27,14,37,6.60
2020,03,27,14,38,6.60
2020,03,27,14,39,6.60
2020,03,27,14,40,6.60
2020,03,27,14,41,6.60
2020,03,27,14,42,6.60
2020,03,27,14,43,6.60
2020,03,27,14,44,6.60
2020,03,27,14,45,6.70
2020,03,27,14,46,6.70
2020,03,27,14,47,6.80
2020,03,27,14,48,6.80
2020,03,27,14,49,6.80
2020,03,27,14,50,6.90
2020,03,27,14,51,7.00
2020,03,27,14,52,7.00
2020,03,27,14,53,7.00
2020,03,27,14,54,7.00
2020,03,27,14,55,7.10
2020,03,27,14,56,7.10
2020,03,27,14,57,7.10
2020,03,27,14,58,7.20
2020,03,27,14,59,7.20
2020,03,27,15,00,7.20
2020,03,27,15,01,7.20
2020,03,27,15,02,7.20
2020,03,27,15,03,7.20
2020,03,27,15,04,7.10
2020,03,27,15,05,7.10
2020,03,27,15,06,7.10
2020,03,27,15,07,7.10
2020,03,27,15,08,7.10
2020,03,27,15,09,7.10
2020,03,27,15,10,7.10
2020,03,27,15,11,7.10
2020,03,27,15,12,7.10
2020,03,27,15,13,7.10
2020,03,27,15,14,7.10
2020,03,27,15,15,7.10
2020,03,27,15,16,7.10
2020,03,27,15,17,7.10
2020,03,27,15,18,7.10
2020,03,27,15,19,7.10
2020,03,27,15,20,7.10
2020,03,27,15,21,7.10
2020,03,27,15,22,7.10
2020,03,27,15,23,7.10
2020,03,27,15,24,7.10
2020,03,27,15,25,7.10
2020,03,27,15,26,7.10
2020,03,27,15,27,7.10
2020,03,27,15,28,7.10
2020,03,27,15,29,7.10
2020,03,27,15,30,7.10
2020,03,27,15,31,7.10
2020,03,27,15,32,7.10
2020,03,27,15,33,7.10
2020,03,27,15,34,7.10
2020,03,27,15,35,7.10
2020,03,27,15,36,7.10
2020,03,27,15,37,7.10
2020,03,27,15,38,7.10
2020,03,27,15,39,7.10
2020,03,27,15,40,7.00
2020,03,27,15,41,7.00
2020,03,27,15,42,7.00
2020,03,27,15,43,7.00
2020,03,27,15,44,7.10
2020,03,27,15,45,7.10
2020,03,27,15,46,7.10
2020,03,27,15,47,7.10
2020,03,27,15,48,7.10
2020,03,27,15,49,7.20
2020,03,27,15,50,7.20
2020,03,27,15,51,7.20
2020,03,27,15,52,7.10
2020,03,27,15,53,7.10
2020,03,27,15,54,7.10
2020,03,27,15,55,7.10
2020,03,27,15,56,7.10
2020,03,27,15,57,7.10
2020,03,27,15,58,7.10
2020,03,27,15,59,7.10
2020,03,27,16,00,7.10
2020,03,27,16,01,7.10
2020,03,27,16,02,7.10
2020,03,27,16,03,7.10
2020,03,27,16,04,7.10
2020,03,27,16,05,7.10
2020,03,27,16,06,7.10
2020,03,27,16,07,7.10
2020,03,27,16,08,7.20
2020,03,27,16,09,7.10
2020,03,27,16,10,7.10
2020,03,27,16,11,7.10
2020,03,27,16,12,7.20
2020,03,27,16,13,7.20
2020,03,27,16,14,7.20
2020,03,27,16,15,7.20
2020,03,27,16,16,7.20
2020,03,27,16,17,7.20
2020,03,27,16,18,7.20
2020,03,27,16,19,7.20
2020,03,27,16,20,7.20
2020,03,27,16,21,7.20
2020,03,27,16,22,7.20
2020,03,27,16,23,7.20
2020,03,27,16,24,7.20
2020,03,27,16,25,7.20
2020,03,27,16,26,7.20
2020,03,27,16,27,7.20
2020,03,27,16,28,7.20
2020,03,27,16,29,7.20
2020,03,27,16,30,7.20
2020,03,27,16,31,7.20
2020,03,27,16,32,7.20
2020,03,27,16,33,7.20
2020,03,27,16,34,7.20
2020,03,27,16,35,7.20
2020,03,27,16,36,7.30
2020,03,27,16,37,7.30
2020,03,27,16,38,7.30
2020,03,27,16,39,7.30
2020,03,27,16,40,7.30
2020,03,27,16,41,7.30
2020,03,27,16,42,7.30
2020,03,27,16,43,7.30
2020,03,27,16,44,7.30
2020,03,27,16,45,7.30
2020,03,27,16,46,7.30
2020,03,27,16,47,7.30
2020,03,27,16,48,7.30
2020,03,27,16,49,7.30
2020,03,27,16,50,7.30
2020,03,27,16,51,7.30
2020,03,27,16,52,7.30
2020,03,27,16,53,7.30
2020,03,27,16,54,7.30
2020,03,27,16,55,7.30
2020,03,27,16,56,7.30
2020,03,27,16,57,7.20
2020,03,27,16,58,7.20
2020,03,27,16,59,7.20
2020,03,27,17,00,7.20
2020,03,27,17,01,7.20
2020,03,27,17,02,7.20
2020,03,27,17,03,7.20
2020,03,27,17,04,7.20
2020,03,27,17,05,7.20
2020,03,27,17,06,7.20
2020,03,27,17,07,7.20
2020,03,27,17,08,7.20
2020,03,27,17,09,7.20
2020,03,27,17,10,7.20
2020,03,27,17,11,7.20
2020,03,27,17,12,7.30
2020,03,27,17,13,7.20
2020,03,27,17,14,7.20
2020,03,27,17,15,7.20
2020,03,27,17,16,7.30
2020,03,27,17,17,7.20
2020,03,27,17,18,7.20
2020,03,27,17,19,7.30
2020,03,27,17,20,7.20
2020,03,27,17,21,7.20
2020,03,27,17,22,7.20
2020,03,27,17,23,7.20
2020,03,27,17,24,7.20
2020,03,27,17,25,7.20
2020,03,27,17,26,7.20
2020,03,27,17,27,7.20
2020,03,27,17,28,7.20
2020,03,27,17,29,7.20
2020,03,27,17,30,7.20
2020,03,27,17,31,7.20
2020,03,27,17,32,7.20
2020,03,27,17,33,7.20
2020,03,27,17,34,7.20
2020,03,27,17,35,7.20
2020,03,27,17,36,7.20
2020,03,27,17,37,7.20
2020,03,27,17,38,7.20
2020,03,27,17,39,7.20
2020,03,27,17,40,7.20
2020,03,27,17,41,7.20
2020,03,27,17,42,7.20
2020,03,27,17,43,7.20
2020,03,27,17,44,7.20
2020,03,27,17,45,7.20
2020,03,27,17,46,7.20
2020,03,27,17,47,7.20
2020,03,27,17,48,7.20
2020,03,27,17,49,7.20
2020,03,27,17,50,7.20
2020,03,27,17,51,7.20
2020,03,27,17,52,7.20
2020,03,27,17,53,7.20
2020,03,27,17,54,7.10
2020,03,27,17,55,7.10
2020,03,27,17,56,7.10
2020,03,27,17,57,7.10
2020,03,27,17,58,7.10
2020,03,27,17,59,7.10
2020,03,27,18,00,7.10
2020,03,27,18,01,7.10
2020,03,27,18,02,7.10
2020,03,27,18,03,7.10
2020,03,27,18,04,7.10
2020,03,27,18,05,7.10
2020,03,27,18,06,7.10
2020,03,27,18,07,7.10
2020,03,27,18,08,7.00
2020,03,27,18,09,7.00
2020,03,27,18,10,7.00
2020,03,27,18,11,7.00
2020,03,27,18,12,7.00
2020,03,27,18,13,7.00
2020,03,27,18,14,7.00
2020,03,27,18,15,7.00
2020,03,27,18,16,7.00
2020,03,27,18,17,7.00
2020,03,27,18,18,7.00
